Time,TemperatureF,DewpointF,PressureIn,WindDirection,WindDirectionDegrees,WindSpeedMPH,WindSpeedGustMPH,Humidity,HourlyPrecipIn,Conditions,Clouds,dailyrainin,SoftwareType,DateUTC
2013-11-16 00:01:00,38.2,34.4,29.92,SSE,153,1.0,3.0,86,0.00,,CLR,0.00,VWS V14.01,2013-11-16 05:01:00,
2013-11-16 00:02:00,38.2,34.4,29.93,SSE,163,1.0,2.0,86,0.00,,CLR,0.00,VWS V14.01,2013-11-16 05:02:00,
2013-11-16 00:07:00,38.2,34.1,29.93,SSE,152,1.0,1.0,85,0.00,,CLR,0.00,VWS V14.01,2013-11-16 05:07:00,
2013-11-16 00:12:00,38.1,34.3,29.93,SE,144,2.0,2.0,86,0.00,,CLR,0.00,VWS V14.01,2013-11-16 05:12:00,
2013-11-16 00:17:00,38.1,34.3,29.93,SSE,149,2.0,3.0,86,0.00,,CLR,0.00,VWS V14.01,2013-11-16 05:17:00,
2013-11-16 00:22:00,38.0,34.2,29.93,SE,144,1.0,2.0,86,0.00,,CLR,0.00,VWS V14.01,2013-11-16 05:22:00,
2013-11-16 00:27:00,38.0,34.2,29.93,SE,127,1.0,3.0,86,0.00,,CLR,0.00,VWS V14.01,2013-11-16 05:27:00,
2013-11-16 00:32:00,37.9,33.8,29.93,ESE,123,2.0,2.0,85,0.00,,CLR,0.00,VWS V14.01,2013-11-16 05:32:00,
2013-11-16 00:37:00,37.6,33.5,29.93,ESE,123,2.0,3.0,85,0.00,,CLR,0.00,VWS V14.01,2013-11-16 05:37:00,
2013-11-16 00:42:00,37.0,32.6,29.93,ESE,118,2.0,3.0,84,0.00,,CLR,0.00,VWS V14.01,2013-11-16 05:42:00,
2013-11-16 00:47:00,36.0,32.2,29.92,ESE,119,3.0,3.0,86,0.00,,CLR,0.00,VWS V14.01,2013-11-16 05:47:00,
2013-11-16 00:52:00,36.0,32.8,29.92,ESE,115,4.0,4.0,88,0.00,,CLR,0.00,VWS V14.01,2013-11-16 05:52:00,
2013-11-16 00:58:00,36.0,32.5,29.92,ESE,113,3.0,3.0,87,0.00,,CLR,0.00,VWS V14.01,2013-11-16 05:58:00,
2013-11-16 01:03:00,36.4,33.5,29.92,ESE,121,3.0,3.0,89,0.00,,CLR,0.00,VWS V14.01,2013-11-16 06:03:00,
2013-11-16 01:08:00,36.7,33.5,29.92,ESE,113,4.0,4.0,88,0.00,,CLR,0.00,VWS V14.01,2013-11-16 06:08:00,
2013-11-16 01:13:00,37.0,33.8,29.92,ESE,117,4.0,4.0,88,0.00,,CLR,0.00,VWS V14.01,2013-11-16 06:13:00,
2013-11-16 01:18:00,37.3,34.1,29.92,SE,125,3.0,3.0,88,0.00,,CLR,0.00,VWS V14.01,2013-11-16 06:18:00,
2013-11-16 01:23:00,37.3,33.8,29.92,SE,134,3.0,3.0,87,0.00,,CLR,0.00,VWS V14.01,2013-11-16 06:23:00,
2013-11-16 01:28:00,37.2,33.7,29.92,SE,136,3.0,3.0,87,0.00,,CLR,0.00,VWS V14.01,2013-11-16 06:28:00,
2013-11-16 01:33:00,37.3,34.1,29.92,SE,140,2.0,4.0,88,0.00,,CLR,0.00,VWS V14.01,2013-11-16 06:33:00,
2013-11-16 01:38:00,37.4,33.9,29.92,SE,138,1.0,1.0,87,0.00,,CLR,0.00,VWS V14.01,2013-11-16 06:38:00,
2013-11-16 01:43:00,37.4,33.9,29.92,ESE,122,2.0,3.0,87,0.00,,CLR,0.00,VWS V14.01,2013-11-16 06:43:00,
2013-11-16 01:48:00,37.5,34.0,29.92,SE,125,2.0,2.0,87,0.00,,CLR,0.00,VWS V14.01,2013-11-16 06:48:00,
2013-11-16 01:53:00,37.6,34.1,29.92,SE,128,4.0,4.0,87,0.00,,CLR,0.00,VWS V14.01,2013-11-16 06:53:00,
2013-11-16 01:58:00,37.7,34.2,29.92,ESE,115,4.0,4.0,87,0.00,,CLR,0.00,VWS V14.01,2013-11-16 06:58:00,
2013-11-16 02:03:00,37.7,33.9,29.92,ESE,117,3.0,3.0,86,0.00,,CLR,0.00,VWS V14.01,2013-11-16 07:03:00,
2013-11-16 02:08:00,37.7,33.9,29.92,ESE,109,6.0,6.0,86,0.00,,CLR,0.00,VWS V14.01,2013-11-16 07:08:00,
2013-11-16 02:13:00,37.6,33.8,29.92,SE,126,2.0,2.0,86,0.00,,CLR,0.00,VWS V14.01,2013-11-16 07:13:00,
2013-11-16 02:18:00,37.6,34.1,29.92,ESE,117,3.0,3.0,87,0.00,,CLR,0.00,VWS V14.01,2013-11-16 07:18:00,
2013-11-16 02:23:00,37.5,34.0,29.92,ESE,123,2.0,3.0,87,0.00,,CLR,0.00,VWS V14.01,2013-11-16 07:23:00,
2013-11-16 02:28:00,37.5,34.0,29.92,SE,133,2.0,2.0,87,0.00,,CLR,0.00,VWS V14.01,2013-11-16 07:28:00,
2013-11-16 02:33:00,37.5,34.0,29.92,SE,133,1.0,1.0,87,0.00,,CLR,0.00,VWS V14.01,2013-11-16 07:33:00,
2013-11-16 02:38:00,37.4,33.9,29.92,SE,126,3.0,3.0,87,0.00,,CLR,0.00,VWS V14.01,2013-11-16 07:38:00,
2013-11-16 02:43:00,37.3,34.1,29.92,SE,138,2.0,2.0,88,0.00,,CLR,0.00,VWS V14.01,2013-11-16 07:43:00,
2013-11-16 02:48:00,37.3,34.1,29.92,SE,137,2.0,3.0,88,0.00,,CLR,0.00,VWS V14.01,2013-11-16 07:48:00,
2013-11-16 02:53:00,37.3,34.1,29.92,SE,132,1.0,1.0,88,0.00,,CLR,0.00,VWS V14.01,2013-11-16 07:53:00,
2013-11-16 02:58:00,37.3,34.1,29.92,ESE,119,3.0,3.0,88,0.00,,CLR,0.00,VWS V14.01,2013-11-16 07:58:00,
2013-11-16 03:03:00,37.4,34.2,29.92,SE,127,3.0,3.0,88,0.00,,CLR,0.00,VWS V14.01,2013-11-16 08:03:00,
2013-11-16 03:08:00,37.6,34.1,29.92,ESE,122,2.0,2.0,87,0.00,,CLR,0.00,VWS V14.01,2013-11-16 08:08:00,
2013-11-16 03:13:00,37.6,34.1,29.92,ESE,116,3.0,3.0,87,0.00,,CLR,0.00,VWS V14.01,2013-11-16 08:13:00,
2013-11-16 03:18:00,37.6,34.1,29.92,ESE,123,2.0,2.0,87,0.00,,CLR,0.00,VWS V14.01,2013-11-16 08:18:00,
2013-11-16 03:23:00,37.6,34.1,29.92,ESE,121,2.0,3.0,87,0.00,,CLR,0.00,VWS V14.01,2013-11-16 08:23:00,
2013-11-16 03:29:00,37.5,34.0,29.92,SE,138,3.0,3.0,87,0.00,,CLR,0.00,VWS V14.01,2013-11-16 08:29:00,
2013-11-16 03:34:00,37.5,34.0,29.92,ESE,117,4.0,5.0,87,0.00,,CLR,0.00,VWS V14.01,2013-11-16 08:34:00,
2013-11-16 03:39:00,37.5,34.0,29.93,ESE,120,6.0,6.0,87,0.00,,CLR,0.00,VWS V14.01,2013-11-16 08:39:00,
2013-11-16 03:44:00,37.7,34.2,29.92,ESE,121,4.0,4.0,87,0.00,,CLR,0.00,VWS V14.01,2013-11-16 08:44:00,
2013-11-16 03:49:00,37.9,34.4,29.93,ESE,117,4.0,6.0,87,0.00,,CLR,0.00,VWS V14.01,2013-11-16 08:49:00,
2013-11-16 03:54:00,37.9,34.4,29.93,ESE,115,4.0,4.0,87,0.00,,CLR,0.00,VWS V14.01,2013-11-16 08:54:00,
2013-11-16 03:59:00,37.9,34.4,29.92,ESE,115,3.0,4.0,87,0.00,,CLR,0.00,VWS V14.01,2013-11-16 08:59:00,
2013-11-16 04:04:00,37.9,34.4,29.92,ESE,113,6.0,7.0,87,0.00,,FEW110,0.00,VWS V14.01,2013-11-16 09:04:00,
2013-11-16 04:09:00,37.9,34.4,29.93,ESE,113,4.0,4.0,87,0.00,,FEW110,0.00,VWS V14.01,2013-11-16 09:09:00,
2013-11-16 04:14:00,37.9,34.4,29.92,ESE,104,2.0,3.0,87,0.00,,FEW110,0.00,VWS V14.01,2013-11-16 09:14:00,
2013-11-16 04:19:00,37.8,34.6,29.92,ESE,103,3.0,3.0,88,0.00,,FEW110,0.00,VWS V14.01,2013-11-16 09:19:00,
2013-11-16 04:24:00,37.8,34.6,29.92,East,101,3.0,3.0,88,0.00,,FEW110,0.00,VWS V14.01,2013-11-16 09:24:00,
2013-11-16 04:29:00,37.4,34.2,29.92,ESE,120,3.0,4.0,88,0.00,,FEW110,0.00,VWS V14.01,2013-11-16 09:29:00,
2013-11-16 04:34:00,37.4,34.5,29.92,ESE,119,1.0,2.0,89,0.00,,FEW110,0.00,VWS V14.01,2013-11-16 09:34:00,
2013-11-16 04:39:00,37.4,34.7,29.92,SSE,150,0.0,2.0,90,0.00,,FEW110,0.00,VWS V14.01,2013-11-16 09:39:00,
2013-11-16 04:44:00,37.6,34.9,29.92,ESE,118,1.0,1.0,90,0.00,,FEW110,0.00,VWS V14.01,2013-11-16 09:44:00,
2013-11-16 04:49:00,37.7,35.0,29.92,SSE,152,3.0,3.0,90,0.00,,FEW110,0.00,VWS V14.01,2013-11-16 09:49:00,
2013-11-16 04:54:00,37.9,35.2,29.92,SW,221,2.0,3.0,90,0.00,,FEW110,0.00,VWS V14.01,2013-11-16 09:54:00,
2013-11-16 04:59:00,38.0,35.3,29.92,SSW,209,2.0,3.0,90,0.00,,FEW110,0.00,VWS V14.01,2013-11-16 09:59:00,
2013-11-16 05:04:00,38.0,35.3,29.92,SE,142,1.0,2.0,90,0.00,,FEW050,0.00,VWS V14.01,2013-11-16 10:04:00,
2013-11-16 05:09:00,38.0,35.3,29.92,South,184,0.0,1.0,90,0.00,,FEW050,0.00,VWS V14.01,2013-11-16 10:09:00,
2013-11-16 05:14:00,38.1,35.4,29.92,SW,215,1.0,3.0,90,0.00,,FEW050,0.00,VWS V14.01,2013-11-16 10:14:00,
2013-11-16 05:19:00,38.0,35.3,29.92,South,189,0.0,1.0,90,0.00,,FEW050,0.00,VWS V14.01,2013-11-16 10:19:00,
2013-11-16 05:24:00,38.0,35.3,29.92,SSW,192,5.0,5.0,90,0.00,,FEW050,0.00,VWS V14.01,2013-11-16 10:24:00,
2013-11-16 05:29:00,38.1,35.4,29.93,SW,231,5.0,5.0,90,0.00,,FEW050,0.00,VWS V14.01,2013-11-16 10:29:00,
2013-11-16 05:34:00,38.3,35.6,29.93,SSW,211,4.0,4.0,90,0.00,,FEW050,0.00,VWS V14.01,2013-11-16 10:34:00,
2013-11-16 05:39:00,38.6,35.9,29.93,SSW,204,5.0,10.0,90,0.00,,FEW050,0.00,VWS V14.01,2013-11-16 10:39:00,
2013-11-16 05:44:00,38.8,36.1,29.93,South,190,3.0,4.0,90,0.00,,FEW050,0.00,VWS V14.01,2013-11-16 10:44:00,
2013-11-16 05:49:00,38.9,35.9,29.93,SW,227,5.0,5.0,89,0.00,,FEW050,0.00,VWS V14.01,2013-11-16 10:49:00,
2013-11-16 05:54:00,38.8,35.8,29.93,SSE,157,2.0,5.0,89,0.00,,FEW050,0.00,VWS V14.01,2013-11-16 10:54:00,
2013-11-16 05:59:00,38.7,35.7,29.93,SSW,196,1.0,1.0,89,0.00,,FEW050,0.00,VWS V14.01,2013-11-16 10:59:00,
2013-11-16 06:04:00,38.6,35.6,29.93,SE,127,1.0,3.0,89,0.00,,BKN050,0.00,VWS V14.01,2013-11-16 11:04:00,
2013-11-16 06:09:00,38.5,35.5,29.93,SW,224,3.0,3.0,89,0.00,,BKN050,0.00,VWS V14.01,2013-11-16 11:09:00,
2013-11-16 06:14:00,38.3,35.3,29.92,SSE,148,0.0,1.0,89,0.00,,BKN050,0.00,VWS V14.01,2013-11-16 11:14:00,
2013-11-16 06:19:00,38.2,35.5,29.92,SSW,193,1.0,2.0,90,0.00,,BKN050,0.00,VWS V14.01,2013-11-16 11:19:00,
2013-11-16 06:24:00,38.1,35.4,29.92,SSW,206,1.0,2.0,90,0.00,,BKN050,0.00,VWS V14.01,2013-11-16 11:24:00,
2013-11-16 06:29:00,38.0,35.3,29.92,SSW,206,3.0,3.0,90,0.00,,BKN050,0.00,VWS V14.01,2013-11-16 11:29:00,
2013-11-16 06:34:00,38.1,35.7,29.92,SW,227,1.0,2.0,91,0.00,,BKN050,0.00,VWS V14.01,2013-11-16 11:34:00,
2013-11-16 06:39:00,38.2,35.8,29.91,South,182,1.0,2.0,91,0.00,,BKN050,0.00,VWS V14.01,2013-11-16 11:39:00,
2013-11-16 06:44:00,38.3,35.9,29.91,SSW,194,2.0,5.0,91,0.00,,BKN050,0.00,VWS V14.01,2013-11-16 11:44:00,
2013-11-16 06:49:00,38.5,36.1,29.91,WSW,241,3.0,3.0,91,0.00,,BKN050,0.00,VWS V14.01,2013-11-16 11:49:00,
2013-11-16 06:54:00,38.8,36.4,29.91,SW,221,5.0,5.0,91,0.00,,BKN050,0.00,VWS V14.01,2013-11-16 11:54:00,
2013-11-16 07:00:00,39.0,36.6,29.91,SW,222,6.0,7.0,91,0.00,,BKN050,0.00,VWS V14.01,2013-11-16 12:00:00,
2013-11-16 07:05:00,39.1,36.4,29.91,SSW,209,2.0,4.0,90,0.00,,OVC038,0.00,VWS V14.01,2013-11-16 12:05:00,
2013-11-16 07:10:00,39.3,36.6,29.91,SE,126,3.0,3.0,90,0.00,,OVC038,0.00,VWS V14.01,2013-11-16 12:10:00,
2013-11-16 07:15:00,39.5,36.8,29.91,SE,135,5.0,10.0,90,0.00,,OVC038,0.00,VWS V14.01,2013-11-16 12:15:00,
2013-11-16 07:20:00,39.7,37.0,29.92,SSW,210,4.0,5.0,90,0.00,,OVC038,0.00,VWS V14.01,2013-11-16 12:20:00,
2013-11-16 07:25:00,39.8,36.8,29.92,SW,227,5.0,5.0,89,0.00,,OVC038,0.00,VWS V14.01,2013-11-16 12:25:00,
2013-11-16 07:30:00,40.0,36.7,29.92,SSE,155,4.0,7.0,88,0.00,,OVC038,0.00,VWS V14.01,2013-11-16 12:30:00,
2013-11-16 07:35:00,40.0,36.7,29.91,SSW,209,3.0,4.0,88,0.00,,OVC038,0.00,VWS V14.01,2013-11-16 12:35:00,
2013-11-16 07:40:00,40.0,36.7,29.91,SSW,205,3.0,3.0,88,0.00,,OVC038,0.00,VWS V14.01,2013-11-16 12:40:00,
2013-11-16 07:45:00,40.0,36.7,29.90,West,273,2.0,3.0,88,0.00,,OVC038,0.00,VWS V14.01,2013-11-16 12:45:00,
2013-11-16 07:50:00,40.1,36.8,29.90,SSE,162,4.0,4.0,88,0.00,,OVC038,0.00,VWS V14.01,2013-11-16 12:50:00,
2013-11-16 07:55:00,40.1,36.5,29.90,SE,140,3.0,7.0,87,0.00,,OVC038,0.00,VWS V14.01,2013-11-16 12:55:00,
2013-11-16 08:00:00,40.2,36.7,29.90,SW,230,4.0,6.0,87,0.00,,OVC038,0.00,VWS V14.01,2013-11-16 13:00:00,
2013-11-16 08:05:00,40.4,36.8,29.90,SSW,201,3.0,5.0,87,0.00,,OVC044,0.00,VWS V14.01,2013-11-16 13:05:00,
2013-11-16 08:10:00,40.4,36.8,29.90,SSW,202,3.0,6.0,87,0.00,,OVC044,0.00,VWS V14.01,2013-11-16 13:10:00,
2013-11-16 08:15:00,40.5,36.9,29.90,SSW,200,1.0,3.0,87,0.00,,OVC044,0.00,VWS V14.01,2013-11-16 13:15:00,
2013-11-16 08:20:00,40.6,36.8,29.90,SSW,210,2.0,3.0,86,0.00,,OVC044,0.00,VWS V14.01,2013-11-16 13:20:00,
2013-11-16 08:25:00,40.6,36.8,29.90,SE,125,4.0,4.0,86,0.00,,OVC044,0.00,VWS V14.01,2013-11-16 13:25:00,
2013-11-16 08:30:00,40.6,36.8,29.90,SSW,207,1.0,3.0,86,0.00,,OVC044,0.00,VWS V14.01,2013-11-16 13:30:00,
2013-11-16 08:35:00,40.7,36.8,29.89,SSW,204,7.0,7.0,86,0.00,,OVC044,0.00,VWS V14.01,2013-11-16 13:35:00,
2013-11-16 08:40:00,40.8,36.9,29.89,SW,230,5.0,6.0,86,0.00,,OVC044,0.00,VWS V14.01,2013-11-16 13:40:00,
2013-11-16 08:45:00,41.1,37.2,29.89,SSE,161,6.0,7.0,86,0.00,,OVC044,0.00,VWS V14.01,2013-11-16 13:45:00,
2013-11-16 08:50:00,41.3,37.1,29.89,SE,132,3.0,4.0,85,0.00,,OVC044,0.00,VWS V14.01,2013-11-16 13:50:00,
2013-11-16 08:55:00,41.5,37.3,29.88,ESE,113,4.0,4.0,85,0.00,,OVC044,0.00,VWS V14.01,2013-11-16 13:55:00,
2013-11-16 09:00:00,41.7,37.5,29.88,ESE,121,2.0,4.0,85,0.00,,OVC044,0.00,VWS V14.01,2013-11-16 14:00:00,
2013-11-16 09:05:00,42.0,37.8,29.88,SSE,152,1.0,2.0,85,0.00,,OVC042,0.00,VWS V14.01,2013-11-16 14:05:00,
2013-11-16 09:10:00,42.4,37.9,29.88,SE,128,3.0,3.0,84,0.00,,OVC042,0.00,VWS V14.01,2013-11-16 14:10:00,
2013-11-16 09:15:00,42.7,37.9,29.87,ESE,121,5.0,5.0,83,0.00,,OVC042,0.00,VWS V14.01,2013-11-16 14:15:00,
2013-11-16 09:21:00,42.9,37.8,29.88,SE,144,9.0,9.0,82,0.00,,OVC042,0.00,VWS V14.01,2013-11-16 14:21:00,
2013-11-16 09:26:00,43.2,37.8,29.87,SE,132,4.0,11.0,81,0.00,,OVC042,0.00,VWS V14.01,2013-11-16 14:26:00,
2013-11-16 09:31:00,43.4,38.0,29.86,SE,129,9.0,9.0,81,0.00,,OVC042,0.00,VWS V14.01,2013-11-16 14:31:00,
2013-11-16 09:36:00,43.6,38.2,29.86,SSE,150,5.0,5.0,81,0.00,,OVC042,0.00,VWS V14.01,2013-11-16 14:36:00,
2013-11-16 09:41:00,43.8,38.0,29.85,SW,215,4.0,9.0,80,0.00,,OVC042,0.00,VWS V14.01,2013-11-16 14:41:00,
2013-11-16 09:46:00,43.9,38.1,29.86,SE,139,4.0,8.0,80,0.00,,OVC042,0.00,VWS V14.01,2013-11-16 14:46:00,
2013-11-16 09:51:00,43.8,38.0,29.86,SE,136,4.0,4.0,80,0.00,,OVC042,0.00,VWS V14.01,2013-11-16 14:51:00,
2013-11-16 09:56:00,43.7,38.0,29.86,SSE,157,4.0,7.0,80,0.00,,OVC042,0.00,VWS V14.01,2013-11-16 14:56:00,
2013-11-16 10:01:00,43.5,38.1,29.86,SSW,198,7.0,9.0,81,0.00,,OVC042,0.00,VWS V14.01,2013-11-16 15:01:00,
2013-11-16 10:06:00,43.3,37.9,29.86,SE,140,4.0,8.0,81,0.00,,OVC042,0.00,VWS V14.01,2013-11-16 15:06:00,
2013-11-16 10:11:00,43.3,37.9,29.86,ESE,103,3.0,7.0,81,0.00,,OVC042,0.00,VWS V14.01,2013-11-16 15:11:00,
2013-11-16 10:16:00,43.6,38.5,29.86,South,186,5.0,5.0,82,0.00,,OVC042,0.00,VWS V14.01,2013-11-16 15:16:00,
2013-11-16 10:21:00,44.5,39.0,29.86,SSW,192,3.0,8.0,81,0.00,,OVC042,0.00,VWS V14.01,2013-11-16 15:21:00,
2013-11-16 10:26:00,45.2,39.7,29.86,South,185,4.0,10.0,81,0.00,,OVC042,0.00,VWS V14.01,2013-11-16 15:26:00,
2013-11-16 10:31:00,45.7,39.9,29.86,SSW,205,7.0,7.0,80,0.00,,OVC042,0.00,VWS V14.01,2013-11-16 15:31:00,
2013-11-16 10:36:00,46.0,40.2,29.86,SW,228,8.0,11.0,80,0.00,,OVC042,0.00,VWS V14.01,2013-11-16 15:36:00,
2013-11-16 10:41:00,46.2,40.4,29.86,East,98,7.0,14.0,80,0.00,,OVC042,0.00,VWS V14.01,2013-11-16 15:41:00,
2013-11-16 10:46:00,46.4,40.6,29.86,SSW,201,17.0,17.0,80,0.00,,OVC042,0.00,VWS V14.01,2013-11-16 15:46:00,
2013-11-16 10:51:00,46.7,41.2,29.85,South,188,6.0,7.0,81,0.00,,OVC042,0.00,VWS V14.01,2013-11-16 15:51:00,
2013-11-16 10:56:00,47.0,41.5,29.85,SW,218,13.0,15.0,81,0.00,,OVC042,0.00,VWS V14.01,2013-11-16 15:56:00,
2013-11-16 11:01:00,47.4,41.9,29.85,SSW,213,9.0,9.0,81,0.00,,OVC044,0.00,VWS V14.01,2013-11-16 16:01:00,
2013-11-16 11:06:00,47.8,41.9,29.85,SSW,203,8.0,10.0,80,0.00,,OVC044,0.00,VWS V14.01,2013-11-16 16:06:00,
2013-11-16 11:11:00,47.9,42.0,29.85,SW,214,10.0,15.0,80,0.00,,OVC044,0.00,VWS V14.01,2013-11-16 16:11:00,
2013-11-16 11:16:00,48.1,42.2,29.84,SE,124,14.0,16.0,80,0.00,,OVC044,0.00,VWS V14.01,2013-11-16 16:16:00,
2013-11-16 11:21:00,48.2,42.3,29.84,WSW,246,4.0,5.0,80,0.00,,OVC044,0.00,VWS V14.01,2013-11-16 16:21:00,
2013-11-16 11:26:00,48.4,42.5,29.84,SSE,159,7.0,13.0,80,0.00,,OVC044,0.00,VWS V14.01,2013-11-16 16:26:00,
2013-11-16 11:31:00,48.6,42.7,29.83,SSE,150,8.0,13.0,80,0.00,,OVC044,0.00,VWS V14.01,2013-11-16 16:31:00,
2013-11-16 11:36:00,48.8,42.6,29.83,SSE,164,7.0,7.0,79,0.00,,OVC044,0.00,VWS V14.01,2013-11-16 16:36:00,
2013-11-16 11:41:00,48.9,42.7,29.83,SSW,193,6.0,11.0,79,0.00,,OVC044,0.00,VWS V14.01,2013-11-16 16:41:00,
2013-11-16 11:46:00,49.0,42.8,29.82,WSW,249,4.0,4.0,79,0.00,,OVC044,0.00,VWS V14.01,2013-11-16 16:46:00,
2013-11-16 11:51:00,49.1,42.9,29.82,East,100,3.0,7.0,79,0.00,,OVC044,0.00,VWS V14.01,2013-11-16 16:51:00,
2013-11-16 11:56:00,49.2,43.0,29.82,SSW,212,7.0,7.0,79,0.00,,OVC044,0.00,VWS V14.01,2013-11-16 16:56:00,
2013-11-16 12:01:00,49.4,43.2,29.81,East,96,3.0,7.0,79,0.00,,CLR,0.00,VWS V14.01,2013-11-16 17:01:00,
2013-11-16 12:06:00,49.6,43.4,29.82,SW,224,8.0,8.0,79,0.00,,CLR,0.00,VWS V14.01,2013-11-16 17:06:00,
2013-11-16 12:12:00,49.9,43.7,29.81,SSE,162,7.0,8.0,79,0.00,,CLR,0.00,VWS V14.01,2013-11-16 17:12:00,
2013-11-16 12:17:00,50.3,44.0,29.81,SW,218,10.0,11.0,79,0.00,,CLR,0.00,VWS V14.01,2013-11-16 17:17:00,
2013-11-16 12:22:00,50.5,43.9,29.81,SSW,192,11.0,13.0,78,0.00,,CLR,0.00,VWS V14.01,2013-11-16 17:22:00,
2013-11-16 12:27:00,50.6,44.3,29.81,SW,216,8.0,12.0,79,0.00,,CLR,0.00,VWS V14.01,2013-11-16 17:27:00,
2013-11-16 12:32:00,50.7,44.1,29.81,WSW,248,9.0,9.0,78,0.00,,CLR,0.00,VWS V14.01,2013-11-16 17:32:00,
2013-11-16 12:37:00,50.7,44.1,29.81,SW,215,14.0,14.0,78,0.00,,CLR,0.00,VWS V14.01,2013-11-16 17:37:00,
2013-11-16 12:42:00,50.6,44.0,29.81,WSW,240,6.0,7.0,78,0.00,,CLR,0.00,VWS V14.01,2013-11-16 17:42:00,
2013-11-16 12:47:00,50.5,44.2,29.81,WSW,254,9.0,9.0,79,0.00,,CLR,0.00,VWS V14.01,2013-11-16 17:47:00,
2013-11-16 12:52:00,50.4,44.1,29.80,SSE,152,3.0,7.0,79,0.00,,CLR,0.00,VWS V14.01,2013-11-16 17:52:00,
2013-11-16 12:57:00,50.4,44.1,29.80,SW,219,9.0,10.0,79,0.00,,CLR,0.00,VWS V14.01,2013-11-16 17:57:00,
2013-11-16 13:02:00,50.3,44.0,29.80,SW,217,4.0,7.0,79,0.00,,CLR,0.00,VWS V14.01,2013-11-16 18:02:00,
2013-11-16 13:07:00,50.3,44.4,29.81,SW,221,4.0,9.0,80,0.00,,CLR,0.00,VWS V14.01,2013-11-16 18:07:00,
2013-11-16 13:12:00,50.1,44.2,29.80,ENE,59,6.0,10.0,80,0.00,,CLR,0.00,VWS V14.01,2013-11-16 18:12:00,
2013-11-16 13:17:00,49.9,44.0,29.80,SSW,213,8.0,14.0,80,0.00,,CLR,0.00,VWS V14.01,2013-11-16 18:17:00,
2013-11-16 13:22:00,49.8,44.2,29.80,SSW,202,8.0,13.0,81,0.00,,CLR,0.00,VWS V14.01,2013-11-16 18:22:00,
2013-11-16 13:27:00,49.8,44.2,29.80,SSW,202,3.0,5.0,81,0.00,,CLR,0.00,VWS V14.01,2013-11-16 18:27:00,
2013-11-16 13:32:00,49.8,44.2,29.80,SSW,209,7.0,7.0,81,0.00,,CLR,0.00,VWS V14.01,2013-11-16 18:32:00,
2013-11-16 13:37:00,49.9,44.3,29.79,SSE,157,8.0,11.0,81,0.00,,CLR,0.00,VWS V14.01,2013-11-16 18:37:00,
2013-11-16 13:42:00,49.9,44.3,29.79,South,170,2.0,5.0,81,0.00,,CLR,0.00,VWS V14.01,2013-11-16 18:42:00,
2013-11-16 13:47:00,49.9,44.3,29.79,WSW,237,7.0,7.0,81,0.00,,CLR,0.00,VWS V14.01,2013-11-16 18:47:00,
2013-11-16 13:52:00,49.9,44.3,29.78,SW,217,2.0,3.0,81,0.00,,CLR,0.00,VWS V14.01,2013-11-16 18:52:00,
2013-11-16 13:57:00,50.0,44.4,29.78,WSW,256,8.0,8.0,81,0.00,,CLR,0.00,VWS V14.01,2013-11-16 18:57:00,
2013-11-16 14:02:00,50.0,44.4,29.78,South,177,4.0,4.0,81,0.00,,CLR,0.00,VWS V14.01,2013-11-16 19:02:00,
2013-11-16 14:07:00,50.1,44.5,29.77,SW,221,4.0,9.0,81,0.00,,CLR,0.00,VWS V14.01,2013-11-16 19:07:00,
2013-11-16 14:13:00,50.2,44.6,29.77,SE,130,3.0,7.0,81,0.00,,CLR,0.00,VWS V14.01,2013-11-16 19:13:00,
2013-11-16 14:18:00,50.4,45.1,29.76,SSW,211,3.0,6.0,82,0.00,,CLR,0.00,VWS V14.01,2013-11-16 19:18:00,
2013-11-16 14:23:00,50.6,45.0,29.76,SW,229,7.0,9.0,81,0.00,,CLR,0.00,VWS V14.01,2013-11-16 19:23:00,
2013-11-16 14:28:00,50.7,45.1,29.76,SW,234,6.0,7.0,81,0.00,,CLR,0.00,VWS V14.01,2013-11-16 19:28:00,
2013-11-16 14:33:00,50.7,45.1,29.75,SE,126,3.0,3.0,81,0.00,,CLR,0.00,VWS V14.01,2013-11-16 19:33:00,
2013-11-16 14:38:00,50.8,45.5,29.75,South,169,4.0,4.0,82,0.00,,CLR,0.00,VWS V14.01,2013-11-16 19:38:00,
2013-11-16 14:43:00,50.9,45.3,29.76,South,185,4.0,6.0,81,0.00,,CLR,0.00,VWS V14.01,2013-11-16 19:43:00,
2013-11-16 14:48:00,50.9,45.3,29.76,WSW,256,9.0,9.0,81,0.00,,CLR,0.00,VWS V14.01,2013-11-16 19:48:00,
2013-11-16 14:53:00,50.9,45.6,29.76,South,180,1.0,3.0,82,0.00,,CLR,0.00,VWS V14.01,2013-11-16 19:53:00,
2013-11-16 14:58:00,50.8,45.5,29.75,SE,143,5.0,5.0,82,0.00,,CLR,0.00,VWS V14.01,2013-11-16 19:58:00,
2013-11-16 15:03:00,50.8,45.5,29.75,SE,138,2.0,2.0,82,0.00,,OVC015,0.00,VWS V14.01,2013-11-16 20:03:00,
2013-11-16 15:08:00,50.7,45.4,29.75,SW,223,3.0,4.0,82,0.00,,OVC015,0.00,VWS V14.01,2013-11-16 20:08:00,
2013-11-16 15:13:00,50.8,45.8,29.75,SSW,213,3.0,8.0,83,0.00,,OVC015,0.00,VWS V14.01,2013-11-16 20:13:00,
2013-11-16 15:18:00,50.7,45.7,29.75,SE,135,3.0,5.0,83,0.00,,OVC015,0.00,VWS V14.01,2013-11-16 20:18:00,
2013-11-16 15:23:00,50.7,45.7,29.75,SSW,204,5.0,6.0,83,0.00,,OVC015,0.00,VWS V14.01,2013-11-16 20:23:00,
2013-11-16 15:28:00,50.7,46.0,29.75,South,178,4.0,6.0,84,0.00,,OVC015,0.00,VWS V14.01,2013-11-16 20:28:00,
2013-11-16 15:33:00,50.7,46.0,29.75,SSW,213,6.0,6.0,84,0.00,,OVC015,0.00,VWS V14.01,2013-11-16 20:33:00,
2013-11-16 15:39:00,50.7,46.0,29.75,South,178,4.0,8.0,84,0.00,,OVC015,0.00,VWS V14.01,2013-11-16 20:39:00,
2013-11-16 15:44:00,50.7,45.7,29.75,SSW,207,3.0,4.0,83,0.00,,OVC015,0.00,VWS V14.01,2013-11-16 20:44:00,
2013-11-16 15:49:00,50.6,45.6,29.75,WSW,241,5.0,5.0,83,0.00,,OVC015,0.00,VWS V14.01,2013-11-16 20:49:00,
2013-11-16 15:54:00,50.5,45.8,29.75,WSW,238,6.0,6.0,84,0.00,,OVC015,0.00,VWS V14.01,2013-11-16 20:54:00,
2013-11-16 15:59:00,50.5,45.8,29.74,SW,222,2.0,5.0,84,0.00,,OVC015,0.00,VWS V14.01,2013-11-16 20:59:00,
2013-11-16 16:04:00,50.5,45.8,29.75,SSW,210,7.0,7.0,84,0.00,,OVC013,0.00,VWS V14.01,2013-11-16 21:04:00,
2013-11-16 16:09:00,50.4,45.8,29.74,SSW,213,10.0,10.0,84,0.00,,OVC013,0.00,VWS V14.01,2013-11-16 21:09:00,
2013-11-16 16:14:00,50.4,45.8,29.74,SW,217,7.0,7.0,84,0.00,,OVC013,0.00,VWS V14.01,2013-11-16 21:14:00,
2013-11-16 16:19:00,50.3,45.7,29.74,SW,223,3.0,5.0,84,0.00,,OVC013,0.00,VWS V14.01,2013-11-16 21:19:00,
2013-11-16 16:24:00,50.3,45.7,29.74,SE,128,3.0,5.0,84,0.00,,OVC013,0.00,VWS V14.01,2013-11-16 21:24:00,
2013-11-16 16:29:00,50.3,45.7,29.74,South,179,3.0,4.0,84,0.00,,OVC013,0.00,VWS V14.01,2013-11-16 21:29:00,
2013-11-16 16:34:00,50.3,46.0,29.74,South,190,3.0,13.0,85,0.00,,OVC013,0.00,VWS V14.01,2013-11-16 21:34:00,
2013-11-16 16:39:00,50.3,46.0,29.74,SSW,211,6.0,6.0,85,0.00,,OVC013,0.00,VWS V14.01,2013-11-16 21:39:00,
2013-11-16 16:44:00,50.3,46.0,29.73,SW,219,5.0,5.0,85,0.00,,OVC013,0.00,VWS V14.01,2013-11-16 21:44:00,
2013-11-16 16:49:00,50.3,45.7,29.73,SE,129,5.0,8.0,84,0.00,,OVC013,0.00,VWS V14.01,2013-11-16 21:49:00,
2013-11-16 16:54:00,50.4,46.1,29.72,SSE,162,6.0,10.0,85,0.00,,OVC013,0.00,VWS V14.01,2013-11-16 21:54:00,
2013-11-16 16:59:00,50.5,45.8,29.72,SE,134,7.0,8.0,84,0.00,,OVC013,0.00,VWS V14.01,2013-11-16 21:59:00,
2013-11-16 17:04:00,50.5,45.8,29.71,SE,142,2.0,2.0,84,0.00,,OVC011,0.00,VWS V14.01,2013-11-16 22:04:00,
2013-11-16 17:09:00,50.6,46.0,29.71,SSW,211,3.0,3.0,84,0.00,,OVC011,0.00,VWS V14.01,2013-11-16 22:09:00,
2013-11-16 17:14:00,50.8,46.2,29.71,West,262,4.0,5.0,84,0.00,,OVC011,0.00,VWS V14.01,2013-11-16 22:14:00,
2013-11-16 17:19:00,50.9,46.2,29.70,SSW,207,7.0,13.0,84,0.00,,OVC011,0.00,VWS V14.01,2013-11-16 22:19:00,
2013-11-16 17:24:00,51.0,46.3,29.70,SE,131,2.0,2.0,84,0.00,,OVC011,0.00,VWS V14.01,2013-11-16 22:24:00,
2013-11-16 17:29:00,51.1,46.1,29.70,WNW,286,1.0,4.0,83,0.00,,OVC011,0.00,VWS V14.01,2013-11-16 22:29:00,
2013-11-16 17:34:00,51.2,46.2,29.70,South,173,2.0,5.0,83,0.00,,OVC011,0.00,VWS V14.01,2013-11-16 22:34:00,
2013-11-16 17:39:00,51.4,46.4,29.70,SSE,163,6.0,9.0,83,0.00,,OVC011,0.00,VWS V14.01,2013-11-16 22:39:00,
2013-11-16 17:44:00,51.5,46.5,29.69,East,90,4.0,4.0,83,0.00,,OVC011,0.00,VWS V14.01,2013-11-16 22:44:00,
2013-11-16 17:49:00,51.7,46.7,29.69,SE,140,4.0,4.0,83,0.00,,OVC011,0.00,VWS V14.01,2013-11-16 22:49:00,
2013-11-16 17:54:00,51.9,46.9,29.68,SE,129,3.0,6.0,83,0.00,,OVC011,0.00,VWS V14.01,2013-11-16 22:54:00,
2013-11-16 17:59:00,52.0,46.7,29.68,South,172,6.0,6.0,82,0.00,,OVC011,0.00,VWS V14.01,2013-11-16 22:59:00,
2013-11-16 18:04:00,52.0,46.7,29.68,WSW,248,5.0,9.0,82,0.00,,RA,0.00,VWS V14.01,2013-11-16 23:04:00,
2013-11-16 18:09:00,52.0,46.7,29.67,ESE,109,8.0,9.0,82,0.00,,RA,0.00,VWS V14.01,2013-11-16 23:09:00,
2013-11-16 18:14:00,52.0,46.7,29.67,SE,134,8.0,11.0,82,0.00,,RA,0.00,VWS V14.01,2013-11-16 23:14:00,
2013-11-16 18:19:00,51.9,46.6,29.68,SE,128,3.0,4.0,82,0.00,,RA,0.00,VWS V14.01,2013-11-16 23:19:00,
2013-11-16 18:24:00,51.9,46.6,29.68,SSE,159,5.0,5.0,82,0.00,,RA,0.00,VWS V14.01,2013-11-16 23:24:00,
2013-11-16 18:29:00,51.7,46.7,29.67,SE,128,9.0,10.0,83,0.00,,RA,0.00,VWS V14.01,2013-11-16 23:29:00,
2013-11-16 18:34:00,51.5,47.2,29.67,SE,139,7.0,8.0,85,0.00,,RA,0.00,VWS V14.01,2013-11-16 23:34:00,
2013-11-16 18:39:00,51.1,47.1,29.67,SSE,152,9.0,10.0,86,0.01,,RA,0.01,VWS V14.01,2013-11-16 23:39:00,
2013-11-16 18:44:00,50.8,47.1,29.67,SE,126,8.0,9.0,87,0.02,,RA,0.02,VWS V14.01,2013-11-16 23:44:00,
2013-11-16 18:49:00,50.5,47.1,29.66,ESE,123,4.0,9.0,88,0.03,,RA,0.03,VWS V14.01,2013-11-16 23:49:00,
2013-11-16 18:54:00,50.3,47.2,29.67,SE,132,5.0,5.0,89,0.04,,RA,0.04,VWS V14.01,2013-11-16 23:54:00,
2013-11-16 19:00:00,50.1,47.3,29.66,ESE,117,6.0,6.0,90,0.04,,RA,0.04,VWS V14.01,2013-11-17 00:00:00,
2013-11-16 19:05:00,49.9,47.1,29.65,SE,140,7.0,7.0,90,0.04,,-RA,0.04,VWS V14.01,2013-11-17 00:05:00,
2013-11-16 19:10:00,49.7,46.9,29.64,SE,129,8.0,8.0,90,0.05,,-RA,0.05,VWS V14.01,2013-11-17 00:10:00,
2013-11-16 19:15:00,49.6,47.1,29.64,SE,128,4.0,8.0,91,0.05,,-RA,0.05,VWS V14.01,2013-11-17 00:15:00,
2013-11-16 19:20:00,49.5,47.0,29.64,ESE,118,4.0,7.0,91,0.05,,-RA,0.05,VWS V14.01,2013-11-17 00:20:00,
2013-11-16 19:25:00,49.4,47.2,29.64,ESE,119,2.0,3.0,92,0.05,,-RA,0.05,VWS V14.01,2013-11-17 00:25:00,
2013-11-16 19:30:00,49.5,47.3,29.65,South,173,6.0,6.0,92,0.05,,-RA,0.05,VWS V14.01,2013-11-17 00:30:00,
2013-11-16 19:35:00,49.6,47.4,29.65,SE,143,4.0,5.0,92,0.05,,-RA,0.05,VWS V14.01,2013-11-17 00:35:00,
2013-11-16 19:40:00,49.6,47.4,29.64,ESE,113,7.0,7.0,92,0.05,,-RA,0.05,VWS V14.01,2013-11-17 00:40:00,
2013-11-16 19:45:00,49.6,47.4,29.64,SE,130,3.0,8.0,92,0.07,,-RA,0.07,VWS V14.01,2013-11-17 00:45:00,
2013-11-16 19:50:00,49.6,47.4,29.63,SE,138,11.0,11.0,92,0.07,,-RA,0.07,VWS V14.01,2013-11-17 00:50:00,
2013-11-16 19:55:00,49.6,47.4,29.62,SE,146,10.0,10.0,92,0.07,,-RA,0.07,VWS V14.01,2013-11-17 00:55:00,
2013-11-16 20:00:00,49.6,47.4,29.62,SE,141,8.0,11.0,92,0.07,,-RA,0.07,VWS V14.01,2013-11-17 01:00:00,
2013-11-16 20:05:00,49.7,47.5,29.61,ESE,118,9.0,9.0,92,0.03,,RA,0.07,VWS V14.01,2013-11-17 01:05:00,
2013-11-16 20:10:00,49.8,47.6,29.61,SE,132,7.0,7.0,92,0.03,,RA,0.07,VWS V14.01,2013-11-17 01:10:00,
2013-11-16 20:15:00,49.8,47.6,29.61,SE,128,10.0,10.0,92,0.03,,RA,0.07,VWS V14.01,2013-11-17 01:15:00,
2013-11-16 20:20:00,49.9,47.7,29.61,SE,145,9.0,9.0,92,0.03,,RA,0.07,VWS V14.01,2013-11-17 01:20:00,
2013-11-16 20:25:00,50.0,47.8,29.60,ESE,111,8.0,14.0,92,0.04,,RA,0.08,VWS V14.01,2013-11-17 01:25:00,
2013-11-16 20:30:00,50.1,48.2,29.60,SE,127,8.0,9.0,93,0.04,,RA,0.08,VWS V14.01,2013-11-17 01:30:00,
2013-11-16 20:35:00,50.2,48.3,29.60,SSE,157,11.0,12.0,93,0.04,,RA,0.09,VWS V14.01,2013-11-17 01:35:00,
2013-11-16 20:40:00,50.2,48.3,29.60,SE,128,7.0,9.0,93,0.04,,RA,0.09,VWS V14.01,2013-11-17 01:40:00,
2013-11-16 20:45:00,50.3,48.4,29.59,SE,132,7.0,10.0,93,0.04,,RA,0.09,VWS V14.01,2013-11-17 01:45:00,
2013-11-16 20:50:00,50.4,48.5,29.58,SE,136,9.0,13.0,93,0.04,,RA,0.09,VWS V14.01,2013-11-17 01:50:00,
2013-11-16 20:55:00,50.6,48.7,29.58,SE,126,8.0,10.0,93,0.05,,RA,0.10,VWS V14.01,2013-11-17 01:55:00,
2013-11-16 21:00:00,50.7,48.8,29.57,SE,142,7.0,7.0,93,0.05,,RA,0.10,VWS V14.01,2013-11-17 02:00:00,
2013-11-16 21:05:00,50.7,48.8,29.57,ESE,119,9.0,9.0,93,0.04,,-RA,0.11,VWS V14.01,2013-11-17 02:05:00,
2013-11-16 21:10:00,50.6,48.7,29.56,SE,130,9.0,10.0,93,0.05,,-RA,0.12,VWS V14.01,2013-11-17 02:10:00,
2013-11-16 21:15:00,50.6,48.7,29.56,SSE,148,6.0,9.0,93,0.05,,-RA,0.12,VWS V14.01,2013-11-17 02:15:00,
2013-11-16 21:20:00,50.6,48.9,29.55,ESE,121,12.0,12.0,94,0.05,,-RA,0.12,VWS V14.01,2013-11-17 02:20:00,
2013-11-16 21:25:00,50.7,49.0,29.54,ESE,107,8.0,12.0,94,0.05,,-RA,0.12,VWS V14.01,2013-11-17 02:25:00,
2013-11-16 21:30:00,51.0,49.3,29.54,SE,130,9.0,9.0,94,0.06,,-RA,0.13,VWS V14.01,2013-11-17 02:30:00,
2013-11-16 21:35:00,51.1,49.2,29.54,SE,130,7.0,9.0,93,0.04,,-RA,0.13,VWS V14.01,2013-11-17 02:35:00,
2013-11-16 21:40:00,51.1,49.2,29.54,ESE,120,6.0,10.0,93,0.04,,-RA,0.13,VWS V14.01,2013-11-17 02:40:00,
2013-11-16 21:45:00,51.2,49.2,29.54,ESE,119,4.0,5.0,93,0.04,,-RA,0.13,VWS V14.01,2013-11-17 02:45:00,
2013-11-16 21:50:00,51.4,49.5,29.53,SSE,150,5.0,10.0,93,0.04,,-RA,0.13,VWS V14.01,2013-11-17 02:50:00,
2013-11-16 21:56:00,51.5,49.5,29.53,SE,126,2.0,2.0,93,0.04,,-RA,0.13,VWS V14.01,2013-11-17 02:56:00,
2013-11-16 22:01:00,51.8,49.8,29.53,East,99,2.0,4.0,93,0.04,,-RA,0.13,VWS V14.01,2013-11-17 03:01:00,
2013-11-16 22:06:00,52.1,50.1,29.53,SW,224,7.0,12.0,93,0.02,,-RA,0.13,VWS V14.01,2013-11-17 03:06:00,
2013-11-16 22:11:00,52.5,50.5,29.52,ESE,107,6.0,6.0,93,0.02,,-RA,0.13,VWS V14.01,2013-11-17 03:11:00,
2013-11-16 22:16:00,52.8,50.5,29.52,WSW,240,2.0,8.0,92,0.03,,-RA,0.14,VWS V14.01,2013-11-17 03:16:00,
2013-11-16 22:21:00,52.8,50.5,29.52,SSW,197,7.0,10.0,92,0.04,,-RA,0.15,VWS V14.01,2013-11-17 03:21:00,
2013-11-16 22:26:00,52.9,50.6,29.51,SE,145,6.0,10.0,92,0.05,,-RA,0.16,VWS V14.01,2013-11-17 03:26:00,
2013-11-16 22:31:00,53.0,50.7,29.52,SW,229,9.0,10.0,92,0.08,,-RA,0.19,VWS V14.01,2013-11-17 03:31:00,
2013-11-16 22:36:00,53.2,50.9,29.51,ESE,109,8.0,11.0,92,0.12,,-RA,0.25,VWS V14.01,2013-11-17 03:36:00,
2013-11-16 22:41:00,53.1,51.1,29.50,SW,226,8.0,8.0,93,0.16,,-RA,0.29,VWS V14.01,2013-11-17 03:41:00,
2013-11-16 22:46:00,53.2,51.2,29.50,SSW,207,9.0,12.0,93,0.18,,-RA,0.31,VWS V14.01,2013-11-17 03:46:00,
2013-11-16 22:51:00,53.3,51.0,29.50,ESE,107,3.0,6.0,92,0.20,,-RA,0.33,VWS V14.01,2013-11-17 03:51:00,
2013-11-16 22:56:00,53.3,51.0,29.50,SE,138,7.0,12.0,92,0.22,,-RA,0.35,VWS V14.01,2013-11-17 03:56:00,
2013-11-16 23:01:00,53.3,51.0,29.50,NNW,336,5.0,14.0,92,0.23,,-RA,0.36,VWS V14.01,2013-11-17 04:01:00,
2013-11-16 23:06:00,53.3,51.0,29.50,SW,221,11.0,12.0,92,0.24,,-RA,0.37,VWS V14.01,2013-11-17 04:06:00,
2013-11-16 23:11:00,53.3,51.0,29.50,SSW,193,9.0,11.0,92,0.25,,-RA,0.38,VWS V14.01,2013-11-17 04:11:00,
2013-11-16 23:16:00,53.3,51.0,29.49,SE,141,8.0,14.0,92,0.26,,-RA,0.39,VWS V14.01,2013-11-17 04:16:00,
2013-11-16 23:21:00,53.4,51.1,29.49,SSW,199,8.0,9.0,92,0.26,,-RA,0.39,VWS V14.01,2013-11-17 04:21:00,
2013-11-16 23:26:00,53.5,51.2,29.50,East,86,3.0,7.0,92,0.26,,-RA,0.39,VWS V14.01,2013-11-17 04:26:00,
2013-11-16 23:31:00,53.5,51.2,29.50,SW,231,7.0,13.0,92,0.26,,-RA,0.39,VWS V14.01,2013-11-17 04:31:00,
2013-11-16 23:36:00,53.5,51.2,29.50,SSW,194,11.0,11.0,92,0.19,,-RA,0.39,VWS V14.01,2013-11-17 04:36:00,
2013-11-16 23:41:00,53.5,51.2,29.50,SSW,209,12.0,12.0,92,0.19,,-RA,0.39,VWS V14.01,2013-11-17 04:41:00,
2013-11-16 23:46:00,53.5,51.2,29.50,SE,134,11.0,14.0,92,0.20,,-RA,0.40,VWS V14.01,2013-11-17 04:46:00,
2013-11-16 23:51:00,53.5,51.2,29.50,SSW,206,3.0,8.0,92,0.20,,-RA,0.40,VWS V14.01,2013-11-17 04:51:00,
2013-11-16 23:56:00,53.4,51.1,29.51,SSW,210,10.0,15.0,92,0.20,,-RA,0.40,VWS V14.01,2013-11-17 04:56:00,